Flag for U.S.A. Weather past 2 weeks in Bentonville, Arkansas, U.S.A.

Now
N/A

Low clouds.


Feels Like: N/A
Forecast: 62 / 79 °F
Wind: 3 mph from South

Location: Bentonville Weather Observing Station

Current Time: May 25, 2015 at 3:39:00 AM

Latest Report: May 25, 2015 at 3:15 AM


Visibility: 8 mi

Pressure: 29.93 "Hg

Humidity: N/A

Dew point: N/A

Location of BentonvilleLocation

Historic Weather in Bentonville — Graph

°F

Bentonville temperature yesterday

Maximum temperature yesterday: 70 °F (at 9:15 AM)
Minimum temperature yesterday: 63 °F (at 7:55 PM)
Average temperature yesterday: 66 °F

Past Weeks' High & Low Weather Summary

 TemperatureHumidityPressure
High82 °F (May 16, 3:35 PM)94% (May 15, 6:15 AM)30.37 "Hg (May 15, 6:15 AM)
Low46 °F (May 21, 5:55 AM)35% (May 12, 2:35 PM)29.82 "Hg (May 16, 10:35 PM)
Average66 °F70%30.09 "Hg
* Reported May 10 2:15 AM — May 25 2:35 AM, Bentonville, Weather by CustomWeather, © 2015

Note: Actual official high and low records may vary slightly from our data, if they occured in-between our weather recording intervals... More about our weather records

Advertising

Bentonville weather history for previous 24 hours

 ConditionsComfort  
Time TempWeatherWind HumidityBarometerVisibility
2:35 AM
Mon, May 25
N/ALow clouds.No windN/A29.94 "Hg10 mi
2:15 AMN/ALow clouds.No windN/A29.93 "Hg10 mi
1:55 AMN/ALow clouds.3 mphN/A29.93 "Hg2 mi
1:35 AMN/ALow clouds.6 mphN/A29.93 "Hg7 mi
1:15 AMN/ALow clouds.5 mphN/A29.93 "Hg10 mi
12:55 AMN/ALow clouds.5 mphN/A29.93 "Hg10 mi
12:35 AMN/ALow clouds.8 mphN/A29.93 "Hg10 mi
12:15 AMN/ALow clouds.8 mphN/A29.93 "Hg10 mi
11:55 PM
Sun, May 24
N/AMostly cloudy.7 mphN/A29.93 "Hg10 mi
11:35 PMN/AMostly cloudy.9 mphN/A29.93 "Hg10 mi
10:55 PM63 °FPartly cloudy.8 mph88%29.93 "Hg10 mi
10:35 PM63 °FPassing clouds.6 mph88%29.92 "Hg10 mi
10:15 PM63 °FMostly cloudy.6 mph88%29.91 "Hg10 mi
9:55 PM64 °FOvercast.7 mph88%29.90 "Hg7 mi
9:35 PM63 °FMostly cloudy.3 mph88%29.89 "Hg10 mi
9:15 PM64 °FOvercast.6 mph83%29.89 "Hg10 mi
8:55 PM63 °FBroken clouds.5 mph88%29.89 "Hg10 mi
8:35 PM63 °FPartly sunny.3 mph88%29.88 "Hg10 mi
8:15 PM63 °FScattered clouds.3 mph88%29.87 "Hg10 mi
7:55 PM63 °FPartly sunny.No wind88%29.87 "Hg10 mi
7:35 PM64 °FCloudy.No wind83%29.87 "Hg10 mi
7:15 PM64 °FMostly cloudy.No wind88%29.87 "Hg4 mi
6:55 PM64 °FMore clouds than sun.No wind88%29.87 "Hg10 mi
6:35 PM64 °FMostly cloudy.6 mph88%29.85 "Hg9 mi
6:15 PM64 °FPartly sunny.7 mph88%29.85 "Hg10 mi
5:55 PMN/ACloudy.3 mphN/A29.86 "Hg5 mi
5:35 PM64 °FCloudy.No wind88%29.87 "Hg5 mi
5:15 PM64 °FPartly sunny.3 mph88%29.86 "Hg8 mi
4:35 PMN/AMore clouds than sun.No windN/A29.89 "Hg4 mi
4:15 PM64 °FPartly sunny.No wind88%29.91 "Hg10 mi
3:55 PM64 °FBroken clouds.3 mph88%29.92 "Hg10 mi
3:35 PM64 °FBroken clouds.3 mph88%29.92 "Hg10 mi
3:15 PM66 °FCloudy.5 mph88%29.94 "Hg10 mi
2:55 PM66 °FMore clouds than sun.6 mph83%29.94 "Hg10 mi
2:35 PM66 °FCloudy.8 mph83%29.95 "Hg10 mi
2:15 PM66 °FMostly cloudy.No wind88%29.94 "Hg10 mi
1:55 PM66 °FMore clouds than sun.7 mph83%29.95 "Hg10 mi
1:35 PM66 °FCloudy.5 mph88%29.95 "Hg9 mi
1:15 PM66 °FCloudy.5 mph88%29.96 "Hg10 mi
12:55 PM66 °FMostly cloudy.8 mph88%29.96 "Hg10 mi
12:35 PM66 °FBroken clouds.9 mph83%29.97 "Hg8 mi
12:15 PM68 °FSunny.12 mph78%29.96 "Hg10 mi
11:55 AM68 °FSunny.8 mph83%29.95 "Hg10 mi
11:35 AM68 °FBroken clouds.8 mph83%29.95 "Hg10 mi
11:15 AM68 °FCloudy.10 mph83%29.94 "Hg10 mi
10:55 AM68 °FMostly cloudy.16 mph83%29.93 "Hg10 mi
10:35 AM70 °FMostly cloudy.13 mph78%29.92 "Hg10 mi
10:15 AM70 °FBroken clouds.15 mph83%29.92 "Hg10 mi
9:55 AM70 °FBroken clouds.13 mph83%29.92 "Hg10 mi
9:35 AM70 °FCloudy.15 mph83%29.92 "Hg9 mi
9:15 AM70 °FPartly sunny.16 mph88%29.91 "Hg10 mi
8:55 AM68 °FScattered clouds.10 mph88%29.91 "Hg10 mi
8:35 AM66 °FBroken clouds.7 mph88%29.92 "Hg10 mi
8:15 AM66 °FMostly cloudy.6 mph88%29.93 "Hg9 mi
7:55 AM66 °FBroken clouds.7 mph88%29.94 "Hg10 mi
7:35 AM64 °FBroken clouds.7 mph88%29.95 "Hg8 mi
7:15 AM64 °FBroken clouds.3 mph88%29.96 "Hg10 mi
6:55 AMN/APassing clouds.No windN/A29.97 "Hg10 mi
6:35 AMN/APartly cloudy.5 mphN/A29.96 "Hg3 mi
6:15 AMN/APartly cloudy.No windN/A29.96 "Hg7 mi
5:55 AMN/APartly cloudy.5 mphN/A29.96 "Hg2 mi
5:35 AMN/AOvercast.No windN/A29.97 "Hg2 mi
5:15 AMN/AOvercast.3 mphN/A29.96 "Hg3 mi
4:55 AMN/AMostly cloudy.6 mphN/A29.96 "Hg3 mi
4:35 AMN/AOvercast.10 mphN/A29.96 "Hg5 mi
4:15 AMN/AOvercast.3 mphN/A29.96 "Hg4 mi
3:55 AMN/AMostly cloudy.3 mphN/A29.96 "Hg4 mi
3:35 AMN/AMostly cloudy.6 mphN/A29.96 "Hg5 mi
3:15 AMN/AOvercast.10 mphN/A29.96 "Hg9 mi
Weather by CustomWeather, © 2015

See weather overviewHow to use our weather pages